This is the latest recevied weather packets stored in our database for station/object K0LFT. If no packets are shown the sender has not sent any weather packets the latest 10 day(s).
| Time | Temp. | Humidity | Pressure | Rain* | Wind** | Luminosity | Snow |
|---|---|---|---|---|---|---|---|
| 1788138112 | 78° F | 89% | 756.4 mmHg | 0 in | - | 0 W/m² | - |
| 1788137811 | 78° F | 89% | 756.4 mmHg | 0 in | - | 1 W/m² | - |
| 1788137506 | 78° F | 89% | 756.6 mmHg | 0 in | - | 2 W/m² | - |
| 1788137202 | 78° F | 89% | 756.4 mmHg | 0 in | - | 3 W/m² | - |
| 1788136898 | 78° F | 89% | 756.3 mmHg | 0 in | - | 5 W/m² | - |
| 1788136594 | 78° F | 88% | 756.3 mmHg | 0 in | - | 8 W/m² | - |
| 1788136290 | 78° F | 88% | 756.3 mmHg | 0 in | - | 10 W/m² | - |
| 1788135988 | 78° F | 87% | 756.2 mmHg | 0 in | - | 12 W/m² | - |
| 1788135683 | 79° F | 87% | 756.3 mmHg | 0 in | - | 16 W/m² | - |
| 1788135379 | 79° F | 86% | 756.3 mmHg | 0 in | - | 22 W/m² | - |
| 1788135075 | 79° F | 86% | 756.4 mmHg | 0 in | - | 29 W/m² | - |
| 1788134772 | 79° F | 85% | 756.2 mmHg | 0 in | - | 32 W/m² | - |
| 1788134471 | 79° F | 85% | 756.4 mmHg | 0 in | - | 35 W/m² | - |
| 1788134170 | 80° F | 85% | 756.4 mmHg | 0 in | - | 55 W/m² | - |
| 1788133865 | 80° F | 84% | 756.2 mmHg | 0 in | - | 55 W/m² | - |
| 1788133560 | 80° F | 84% | 756.4 mmHg | 0 in | - | 71 W/m² | - |
| 1788133255 | 80° F | 84% | 756.4 mmHg | 0 in | - | 84 W/m² | - |
| 1788132950 | 80° F | 84% | 756.3 mmHg | 0 in | - | 64 W/m² | - |
| 1788132646 | 80° F | 83% | 756.2 mmHg | 0 in | - | 84 W/m² | - |
| 1788132342 | 80° F | 82% | 756.2 mmHg | 0 in | - | 166 W/m² | - |
| 1788132038 | 80° F | 82% | 756.2 mmHg | 0 in | - | 194 W/m² | - |
| 1788131733 | 80° F | 82% | 756.1 mmHg | 0 in | - | 166 W/m² | - |
| 1788131433 | 80° F | 82% | 756.1 mmHg | 0 in | - | 97 W/m² | - |
| 1788131128 | 80° F | 82% | 756.2 mmHg | 0 in | - | 101 W/m² | - |
| 1788130823 | 80° F | 81% | 756.4 mmHg | 0 in | - | 121 W/m² | - |
* Rain latest hour (hover to see other rain measurements)
** Current wind speed in m/s (hover to see current wind gust speed)